Location: Cassano d�Adda
(45.5333°N, 9.5167°E)
Time: 22:38:09
(UTC+00:00)

Cosmos 2333 Rocket - Pass Details

Date: 08 December 2019
Orbit: 837 x 865 km, 70.8° (Epoch: 18 January)

Event Time Altitude Azimuth Distance (km) Brightness Sun altitude
Rises 17:54:35 0° 245° (WSW) 3,419 6.7 -23.0°
Reaches altitude 10° 17:57:30 10° 259° (W) 2,491 5.8 -23.5°
Maximum altitude 18:02:05 24° 313° (NW) 1,709 4.1 -24.3°
Drops below altitude 10° 18:06:43 10° 6° (N) 2,513 4.5 -25.1°
Enters shadow 18:06:43 10° 6° (N) 2,515 4.5 -25.1°
